Content
SEND FEEDBACK

Daily
Averages
Monthly
Summary
United States of America

ACHANG BAY, GUAM


Home > North America > United States > Guam
Elevation: 30 feet     Latitude: 13 16N     Longitude: 144 45E

WEATHER
 
SELECT A DAY
Number of Records: 342,554;   Date Range: 1/1/95 - 9/16/14
 
SHARE

PRINT THIS DATA

[ ← Previous Day ]
WEATHER ALMANAC - SEPTEMBER 2, 2014
[ Next Day → ]
[ °C ]   °F
Weather ElementAverageHighLow
Temperature79.1 °F86 °F (10:08 am) (10:11 pm)
Dewpoint73.3 °F75.9 °F (1:58 pm) (7:00 pm)
Humidity82.8 %96 % (10:58 pm)70 % (9:23 am)
Barometer29.81 in29.88 in (9:48 pm)29.74 in (2:58 am)
Wind Speed8.1 mph15 mph (7:26 pm)
Weather ElementAverage
Visibility9 mi
Wind DirectionSSW (215.6 °)

Weather ElementTotal
Precipitation0.67 in
Heating Degree Days22 (Base 65)
Averaged from 87 records on September 2, 2014
WEATHER CONDITIONS BREAKOUT
WIND DIRECTION BREAKOUT
WEATHER BY HOUR - SEPTEMBER 2, 2014
[ °C ]   °F
Local TimeTemperatureDewpointHumidityBarometerVisibilityWind DirectionWind SpeedGust SpeedPrecipitationEventsConditions
1:58 AM76.8 °F74.3 °F92 %29.75 in10.0 miWSW (240°)5.8 mphClear
2:58 AM76.6 °F74.3 °F92 %29.74 in10.0 miWSW (250°)3.5 mphClear
3:58 AM76.5 °F74.3 °F93 %29.74 in10.0 miWest (260°)4.6 mphClear
4:58 AM77.0 °F74.5 °F92 %29.75 in10.0 miSW (230°)5.8 mphClear
5:58 AM76.3 °F73.8 °F92 %29.76 in10.0 miSW (230°)4.6 mphClear
6:58 AM78.1 °F74.5 °F89 %29.77 in10.0 miWSW (240°)4.6 mphClear
7:58 AM82.6 °F75.2 °F78 %29.79 in10.0 miSSW (200°)6.9 mphClear
8:58 AM84.0 °F73.9 °F72 %29.78 in10.0 miSSW (200°)6.9 mphPartly Cloudy
9:23 AM84.2 °F73.4 °F70 %29.82 in10.0 miWSW (250°)5.8 mphMostly Cloudy
9:58 AM83.5 °F74.1 °F73 %29.78 in10.0 miWSW (250°)8.1 mphMostly Cloudy
10:08 AM86.0 °F75.2 °F70 %29.81 in10.0 miWSW (250°)9.2 mphMostly Cloudy
10:13 AM84.2 °F75.2 °F74 %29.82 in10.0 miWSW (250°)6.9 mphMostly Cloudy
10:18 AM84.2 °F75.2 °F74 %29.82 in10.0 miWSW (250°)8.1 mphMostly Cloudy
10:28 AM86.0 °F75.2 °F70 %29.82 in10.0 miWSW (240°)6.9 mphScattered Clouds
10:43 AM86.0 °F75.2 °F70 %29.82 in10.0 miWSW (250°)6.9 mphMostly Cloudy
10:48 AM86.0 °F75.2 °F70 %29.81 in10.0 miWest (260°)9.2 mphMostly Cloudy
10:53 AM86.0 °F75.2 °F70 %29.81 in10.0 miWSW (250°)8.1 mphMostly Cloudy
10:58 AM85.5 °F74.7 °F70 %29.78 in10.0 miWest (280°)11.5 mphMostly Cloudy
11:03 AM84.2 °F73.4 °F70 %29.81 in10.0 miWSW (250°)9.2 mphScattered Clouds
11:43 AM84.2 °F73.4 °F70 %29.81 in10.0 miSSW (200°)6.9 mphMostly Cloudy
11:58 AM83.5 °F75.6 °F77 %29.77 in10.0 miVariable3.5 mphOvercast
12:23 PM86.0 °F75.2 °F70 %29.79 in10.0 miWest (280°)10.4 mphOvercast
12:29 PM86.0 °F75.2 °F70 %29.80 in10.0 miWNW (290°)12.7 mphThunderstormThunderstorm
12:34 PM84.2 °F75.2 °F74 %29.80 in10.0 miWest (270°)9.2 mphThunderstormThunderstorm
12:39 PM84.2 °F75.2 °F74 %29.79 in10.0 miWest (280°)12.7 mphThunderstormThunderstorm
12:47 PM84.2 °F73.4 °F70 %29.79 in10.0 miWest (280°)11.5 mphThunderstormThunderstorm
12:48 PM84.2 °F73.4 °F70 %29.79 in10.0 miWest (280°)11.5 mphThunderstormThunderstorm
12:49 PM84.2 °F73.4 °F70 %29.79 in10.0 miWest (280°)11.5 mphThunderstormThunderstorm
12:56 PM82.4 °F75.2 °F79 %29.79 in10.0 miWest (280°)11.5 mphScattered Clouds
12:58 PM83.3 °F74.3 °F74 %29.76 in10.0 miWest (280°)10.4 mphThunderstormThunderstorm
1:00 PM82.4 °F75.2 °F79 %29.79 in10.0 miWNW (290°)10.4 mphPartly Cloudy
1:04 PM82.4 °F75.2 °F79 %29.79 in10.0 miWest (280°)10.4 mphClear
1:44 PM82.4 °F75.2 °F79 %29.78 in10.0 miWest (270°)10.4 mphThunderstormThunderstorm
1:49 PM82.4 °F75.2 °F79 %29.78 in10.0 miWest (260°)9.2 mphThunderstormThunderstorm
1:54 PM82.4 °F75.2 °F79 %29.78 in10.0 miWest (260°)11.5 mphThunderstormThunderstorm
1:58 PM82.9 °F75.9 °F79 %29.75 in10.0 miWest (260°)11.5 mphThunderstormThunderstorm
1:59 PM82.4 °F75.2 °F79 %29.78 in10.0 miWest (260°)10.4 mphThunderstormThunderstorm
2:05 PM82.4 °F75.2 °F79 %29.78 in10.0 miWest (260°)9.2 mphThunderstormPartly Cloudy
2:58 PM82.0 °F75.4 °F80 %29.75 in10.0 miWest (260°)12.7 mphThunderstormPartly Cloudy
3:51 PM82.4 °F75.2 °F79 %29.78 in10.0 miWest (270°)9.2 mphClear
3:58 PM81.7 °F75.7 °F82 %29.75 in10.0 miWest (260°)10.4 mphClear
4:03 PM82.4 °F75.2 °F79 %29.78 in10.0 miWest (270°)10.4 mphClear
4:06 PM82.4 °F75.2 °F79 %29.77 in10.0 miWest (270°)10.4 mphClear
4:17 PM80.6 °F75.2 °F84 %29.77 in10.0 miWest (260°)10.4 mphClear
4:18 PM80.6 °F75.2 °F84 %29.77 in10.0 miWest (260°)10.4 mphClear
4:21 PM80.6 °F75.2 °F84 %29.78 in10.0 miWest (270°)10.4 mphClear
4:25 PM80.6 °F75.2 °F84 %29.78 in10.0 miWest (260°)9.2 mphClear
4:27 PM80.6 °F75.2 °F84 %29.78 in10.0 miWest (260°)6.9 mphClear
4:28 PM80.6 °F75.2 °F84 %29.78 in10.0 miWSW (250°)6.9 mphClear
4:29 PM80.6 °F75.2 °F84 %29.78 in10.0 miWest (260°)8.1 mphClear
4:30 PM80.6 °F75.2 °F84 %29.78 in10.0 miWest (260°)8.1 mphClear
4:31 PM80.6 °F75.2 °F84 %29.78 in10.0 miWSW (250°)9.2 mphClear
4:32 PM80.6 °F75.2 °F84 %29.78 in10.0 miWSW (250°)8.1 mphClear
4:33 PM80.6 °F75.2 °F84 %29.78 in10.0 miWSW (250°)8.1 mphClear
4:58 PM80.8 °F75.6 °F84 %29.75 in10.0 miWest (260°)8.1 mphClear
5:58 PM79.3 °F70.7 °F75 %29.77 in10.0 miNorth (10°)1.2 mphOvercast
6:37 PM80.6 °F71.6 °F74 %29.82 in10.0 miNE (40°)5.8 mphRainLight Rain
6:49 PM80.6 °F73.4 °F79 %29.83 in10.0 miNNE (30°)1.2 mphOvercast
6:58 PM79.3 °F74.8 °F86 %29.79 in7.0 miNNE (30°)2.3 mph0.00 inMostly Cloudy
7:03 PM78.8 °F75.2 °F89 %29.82 in8.0 miNNE (30°)4.6 mphMostly Cloudy
7:13 PM78.8 °F75.2 °F89 %29.83 in10.0 miNorth (350°)8.1 mphMostly Cloudy
7:18 PM78.8 °F75.2 °F89 %29.83 in10.0 miNNW (330°)11.5 mphOvercast
7:26 PM77.0 °F75.2 °F94 %29.83 in10.0 miNNW (330°)15.0 mphLight Drizzle
7:31 PM77.0 °F71.6 °F83 %29.84 in3.0 miNNW (330°)10.4 mphRainLight Rain
7:36 PM75.2 °F71.6 °F89 %29.84 in2.0 miNorth (10°)4.6 mphRainLight Rain
7:41 PM75.2 °F71.6 °F89 %29.85 in2.5 miVariable6.9 mphRainHeavy Rain
7:46 PM75.2 °F71.6 °F89 %29.85 in1.2 miNE (40°)5.8 mphRainHeavy Rain
7:55 PM73.4 °F71.6 °F94 %29.86 in2.5 miENE (60°)6.9 mphRain-ThunderstormHeavy Thunderstorms and Rain
7:58 PM73.4 °F71.6 °F94 %29.83 in2.5 miEast (90°)5.8 mph0.39 inRain-ThunderstormHeavy Thunderstorms and Rain
8:03 PM73.4 °F71.6 °F94 %29.87 in4.0 miESE (110°)3.5 mphRain-ThunderstormLight Thunderstorms and Rain
8:18 PM75.2 °F71.6 °F89 %29.86 in5.0 miWest (260°)5.8 mphRain-ThunderstormLight Thunderstorms and Rain
8:28 PM75.2 °F71.6 °F89 %29.85 in9.0 miWest (270°)3.5 mphRain-ThunderstormLight Thunderstorms and Rain
8:39 PM75.2 °F73.4 °F94 %29.86 in7.0 miSSW (210°)5.8 mphRain-ThunderstormLight Rain
8:58 PM74.7 °F73.2 °F95 %29.84 in5.0 miWSW (250°)8.1 mph0.15 inRainRain
9:03 PM75.2 °F73.4 °F94 %29.87 in4.0 miSW (230°)3.5 mphRainRain
9:08 PM73.4 °F71.6 °F94 %29.87 in5.0 miSW (220°)1.2 mphRainRain
9:13 PM75.2 °F73.4 °F94 %29.87 in7.0 miSE (140°)3.5 mphRainLight Rain
9:48 PM75.2 °F73.4 °F94 %29.88 in10.0 miSE (130°)10.4 mphRainLight Rain
9:53 PM75.2 °F73.4 °F94 %29.88 in10.0 miSE (140°)9.2 mphRainLight Rain
9:58 PM75.2 °F73.4 °F94 %29.86 in10.0 miSE (140°)9.2 mph0.08 inRainLight Rain
10:03 PM75.2 °F73.4 °F94 %29.88 in10.0 miSE (140°)9.2 mphRainLight Rain
10:11 PM0.0 °F0.0 °FSE (140°)10.4 mph
10:12 PM75.2 °F73.4 °F94 %29.88 in10.0 miSE (140°)9.2 mphRainLight Rain
10:22 PM75.2 °F73.4 °F94 %29.88 in10.0 miSE (140°)9.2 mphRainLight Rain
10:37 PM75.2 °F73.4 °F94 %29.86 in10.0 miSSE (150°)8.1 mphRainLight Rain
10:58 PM74.8 °F73.6 °F96 %29.82 in10.0 miSouth (170°)9.2 mph0.03 inRainLight Rain
11:58 PM75.4 °F73.8 °F95 %29.81 in10.0 miSouth (190°)8.1 mph0.02 inRainLight Rain
Hourly data recorded from PGUA, located miles away from Achang Bay, Guam







STORIES FROM OUR PARTNERS